Humidity-temperature Sensor

Selected Measurement Type: Relative Humidity

 
Relative Humidity [%]     6 entries per hour
Showing data from 5/1/2022 (00:00:00 Z) to 4/24/2022 (00:01:00 Z)
Previous Next [ Day | 3-Days | 7-Days ]
First Last
Prev [ Day | 3-Days | 7-Days ] Next
First Last

Start Time:     :
End Time:     :     
Time (in GMT) :00 :50 :40 :30 :20 :10
Previous Next [ Day | 3-Days | 7-Days ]
First Last
Prev [ Day | 3-Days | 7-Days ] Next
First Last


123 => good data
MM => data is determined as missing
-- => data not received/configured
Back to Top Back to Top
5/1/2022 00:00 to 23:10 90.61 91.42 91.13 90.66 89.98 89.71
4/30/2022 23:00 to 22:10 89.53 89.69 89.98 89.79 89.85 89.71
4/30/2022 22:00 to 21:10 89.71 90.51 91.52 92.24 93.70 95.44
4/30/2022 21:00 to 20:10 97.05 97.87 98.24 98.67 98.63 98.69
4/30/2022 20:00 to 19:10 98.20 97.87 97.56 97.21 96.53 94.99
4/30/2022 19:00 to 18:10 92.26 86.24 85.91 86.11 85.89 85.66
4/30/2022 18:00 to 17:10 86.38 87.02 87.20 87.78 87.57 87.61
4/30/2022 17:00 to 16:10 87.76 87.86 88.11 88.31 88.85 89.50
4/30/2022 16:00 to 15:10 89.26 88.66 88.07 88.03 88.44 88.66
4/30/2022 15:00 to 14:10 89.16 88.40 87.86 88.60 89.30 89.09
4/30/2022 14:00 to 13:10 89.20 88.77 88.66 88.74 88.70 88.72
4/30/2022 13:00 to 12:10 88.79 89.03 89.30 89.65 89.48 90.24
4/30/2022 12:00 to 11:10 92.03 93.74 95.05 95.24 95.03 94.46
4/30/2022 11:00 to 10:10 93.51 92.32 90.86 90.37 90.51 90.29
4/30/2022 10:00 to 9:10 90.10 90.53 90.92 91.19 90.94 91.03
4/30/2022 09:00 to 8:10 91.54 92.03 92.67 92.63 92.69 93.49
4/30/2022 08:00 to 7:10 93.33 93.41 92.79 92.57 92.75 92.73
4/30/2022 07:00 to 6:10 92.32 92.16 91.48 91.17 90.94 90.70
4/30/2022 06:00 to 5:10 90.98 91.25 91.09 90.94 90.24 90.61
4/30/2022 05:00 to 4:10 90.72 89.90 89.92 90.08 90.53 90.43
4/30/2022 04:00 to 3:10 90.31 90.18 90.22 90.24 90.27 90.18
4/30/2022 03:00 to 2:10 90.02 89.75 89.71 89.48 89.65 89.40
4/30/2022 02:00 to 1:10 89.59 89.96 90.43 89.98 89.73 89.40
4/30/2022 01:00 to 0:10 89.57 89.63 90.00 90.66 90.57 90.33
4/30/2022 00:00 to 23:10 89.71 89.61 89.92 90.92 92.22 93.72
4/29/2022 23:00 to 22:10 93.47 92.34 92.48 92.77 90.72 90.70
4/29/2022 22:00 to 21:10 91.31 90.35 89.07 89.55 89.81 89.57
4/29/2022 21:00 to 20:10 89.69 89.46 89.07 88.42 88.62 88.95
4/29/2022 20:00 to 19:10 89.34 90.02 90.92 91.40 91.56 91.85
4/29/2022 19:00 to 18:10 91.77 91.97 91.68 91.13 91.07 91.09
4/29/2022 18:00 to 17:10 90.92 91.11 91.54 91.74 92.14 92.40
4/29/2022 17:00 to 16:10 92.44 92.59 92.63 92.79 92.67 92.83
4/29/2022 16:00 to 15:10 92.71 92.81 93.22 93.64 94.31 94.74
4/29/2022 15:00 to 14:10 95.55 96.12 96.59 97.05 97.23 97.42
4/29/2022 14:00 to 13:10 97.70 97.83 97.74 98.09 97.91 98.11
4/29/2022 13:00 to 12:10 98.07 98.34 98.67 98.94 99.10 99.12
4/29/2022 12:00 to 11:10 99.04 98.90 98.90 98.71 98.40 98.61
4/29/2022 11:00 to 10:10 98.67 98.85 98.44 98.55 98.59 98.69
4/29/2022 10:00 to 9:10 98.85 98.59 98.71 98.34 98.77 99.20
4/29/2022 09:00 to 8:10 99.53 99.90 100.13 100.64 100.79 100.91
4/29/2022 08:00 to 7:10 100.91 100.91 100.91 100.91 100.91 100.91
4/29/2022 07:00 to 6:10 100.87 100.91 100.89 100.91 100.91 100.91
4/29/2022 06:00 to 5:10 100.91 100.91 100.91 100.91 100.91 100.91
4/29/2022 05:00 to 4:10 100.81 100.72 100.62 100.38 100.27 99.90
4/29/2022 04:00 to 3:10 99.80 99.22 98.85 98.28 97.99 97.40
4/29/2022 03:00 to 2:10 96.64 95.85 95.05 94.54 94.17 94.37
4/29/2022 02:00 to 1:10 94.97 95.20 95.14 95.40 95.63 95.73
4/29/2022 01:00 to 0:10 95.90 96.27 96.31 96.33 96.39 96.51
4/29/2022 00:00 to 23:10 96.66 97.03 97.38 97.70 97.99 98.14
4/28/2022 23:00 to 22:10 98.44 98.77 98.77 98.81 98.59 98.24
4/28/2022 22:00 to 21:10 97.66 97.07 95.79 95.44 95.87 95.92
4/28/2022 21:00 to 20:10 95.14 93.96 92.14 91.62 92.07 92.69
4/28/2022 20:00 to 19:10 92.94 93.16 93.06 93.74 93.94 93.98
4/28/2022 19:00 to 18:10 94.37 94.50 94.46 94.42 94.17 94.15
4/28/2022 18:00 to 17:10 94.29 94.60 94.48 94.60 94.74 94.99
4/28/2022 17:00 to 16:10 95.55 95.79 96.35 96.88 97.48 98.05
4/28/2022 16:00 to 15:10 98.79 99.78 99.96 100.13 100.33 100.68
4/28/2022 15:00 to 14:10 100.87 100.91 100.91 100.91 100.91 100.91
4/28/2022 14:00 to 13:10 100.91 100.91 100.91 100.91 100.91 100.91
4/28/2022 13:00 to 12:10 100.91 100.91 100.91 100.91 100.91 100.91
4/28/2022 12:00 to 11:10 100.87 100.70 100.52 99.94 99.55 98.88
4/28/2022 11:00 to 10:10 98.05 97.29 97.13 96.88 96.72 96.45
4/28/2022 10:00 to 9:10 96.08 95.63 95.14 94.56 94.37 94.29
4/28/2022 09:00 to 8:10 94.40 93.80 93.51 93.84 93.16 91.93
4/28/2022 08:00 to 7:10 91.40 91.31 92.42 92.71 92.83 92.85
4/28/2022 07:00 to 6:10 92.18 90.86 91.58 92.81 94.23 94.37
4/28/2022 06:00 to 5:10 93.94 94.81 96.08 96.98 97.42 97.23
4/28/2022 05:00 to 4:10 97.29 96.84 96.84 96.33 96.10 96.37
4/28/2022 04:00 to 3:10 96.59 96.72 96.80 96.55 95.98 95.79
4/28/2022 03:00 to 2:10 94.58 92.87 93.12 93.04 92.83 93.06
4/28/2022 02:00 to 1:10 93.39 93.82 94.40 94.44 94.74 95.09
4/28/2022 01:00 to 0:10 95.07 95.67 96.27 96.29 96.55 96.82
4/28/2022 00:00 to 23:10 96.98 97.15 97.07 96.96 96.90 96.51
4/27/2022 23:00 to 22:10 96.02 94.95 93.80 92.71 92.90 92.79
4/27/2022 22:00 to 21:10 92.07 91.42 90.20 88.46 88.48 88.03
4/27/2022 21:00 to 20:10 87.14 87.26 88.81 90.98 93.12 93.80
4/27/2022 20:00 to 19:10 94.33 95.18 95.59 96.24 97.13 97.31
4/27/2022 19:00 to 18:10 97.66 97.19 96.74 95.40 94.56 93.22
4/27/2022 18:00 to 17:10 93.86 95.53 96.47 96.02 95.07 93.92
4/27/2022 17:00 to 16:10 92.11 91.44 89.05 88.17 89.16 90.10
4/27/2022 16:00 to 15:10 90.10 90.16 90.61 91.68 93.04 94.52
4/27/2022 15:00 to 14:10 95.81 96.45 96.78 97.38 97.81 97.89
4/27/2022 14:00 to 13:10 97.72 97.85 97.74 97.58 97.46 97.25
4/27/2022 13:00 to 12:10 96.41 95.67 94.83 93.84 93.37 93.27
4/27/2022 12:00 to 11:10 93.35 93.68 93.82 93.84 93.31 93.02
4/27/2022 11:00 to 10:10 93.94 94.64 95.34 96.24 96.68 96.51
4/27/2022 10:00 to 9:10 96.02 95.11 94.27 92.90 91.13 90.92
4/27/2022 09:00 to 8:10 90.68 90.08 89.87 89.85 89.81 89.50
4/27/2022 08:00 to 7:10 89.30 89.40 89.03 89.42 89.67 90.49
4/27/2022 07:00 to 6:10 91.17 91.25 90.80 90.41 90.66 91.19
4/27/2022 06:00 to 5:10 91.40 91.62 91.48 91.48 91.09 90.80
4/27/2022 05:00 to 4:10 90.72 90.61 91.64 92.30 92.61 92.46
4/27/2022 04:00 to 3:10 92.34 91.35 90.29 90.00 89.94 90.33
4/27/2022 03:00 to 2:10 90.74 91.52 91.79 92.38 92.79 93.45
4/27/2022 02:00 to 1:10 93.64 93.51 93.76 93.45 91.95 91.40
4/27/2022 01:00 to 0:10 91.27 91.13 90.86 89.96 88.77 88.48
4/27/2022 00:00 to 23:10 88.79 90.57 92.57 95.22 95.79 95.69
4/26/2022 23:00 to 22:10 95.20 93.88 92.34 92.09 91.77 90.59
4/26/2022 22:00 to 21:10 90.43 90.00 89.90 88.40 88.48 88.46
4/26/2022 21:00 to 20:10 87.70 87.90 88.48 89.22 89.92 90.04
4/26/2022 20:00 to 19:10 90.59 91.68 93.74 93.35 92.28 93.35
4/26/2022 19:00 to 18:10 94.95 95.92 95.79 95.16 93.90 93.04
4/26/2022 18:00 to 17:10 92.46 92.55 92.24 90.35 88.87 88.13
4/26/2022 17:00 to 16:10 86.92 86.36 85.79 85.85 86.22 86.01
4/26/2022 16:00 to 15:10 85.81 85.85 85.68 85.48 85.54 86.50
4/26/2022 15:00 to 14:10 87.92 88.48 87.96 88.91 89.36 88.83
4/26/2022 14:00 to 13:10 89.81 91.03 91.95 92.92 92.98 93.12
4/26/2022 13:00 to 12:10 93.16 93.29 93.55 93.53 93.59 93.84
4/26/2022 12:00 to 11:10 93.61 93.08 92.67 92.03 92.42 93.61
4/26/2022 11:00 to 10:10 94.74 96.35 96.82 96.47 95.83 94.95
4/26/2022 10:00 to 9:10 93.61 93.27 93.39 93.88 94.15 95.01
4/26/2022 09:00 to 8:10 96.35 96.96 97.03 97.56 98.53 99.08
4/26/2022 08:00 to 7:10 99.84 99.78 99.59 99.24 99.02 98.81
4/26/2022 07:00 to 6:10 98.44 97.27 95.96 94.40 93.96 94.27
4/26/2022 06:00 to 5:10 94.77 95.57 96.35 96.51 96.88 97.13
4/26/2022 05:00 to 4:10 96.64 96.61 97.03 97.19 97.70 97.95
4/26/2022 04:00 to 3:10 97.83 97.87 97.89 97.89 98.11 97.87
4/26/2022 03:00 to 2:10 98.05 98.22 98.83 99.04 99.37 99.22
4/26/2022 02:00 to 1:10 99.51 99.53 99.80 100.19 100.42 100.60
4/26/2022 01:00 to 0:10 100.79 100.89 100.85 100.91 100.91 100.91
4/26/2022 00:00 to 23:10 100.91 100.91 100.91 100.89 100.91 100.91
4/25/2022 23:00 to 22:10 100.91 100.91 100.91 100.89 100.91 100.91
4/25/2022 22:00 to 21:10 100.91 100.91 100.91 100.91 100.91 100.87
4/25/2022 21:00 to 20:10 100.77 100.44 100.44 99.90 99.10 98.57
4/25/2022 20:00 to 19:10 97.74 97.25 96.74 96.47 96.33 96.18
4/25/2022 19:00 to 18:10 96.08 96.00 95.73 95.46 95.28 94.95
4/25/2022 18:00 to 17:10 95.01 94.83 94.87 94.97 95.22 95.59
4/25/2022 17:00 to 16:10 95.48 95.36 94.87 94.87 94.64 94.50
4/25/2022 16:00 to 15:10 93.88 93.90 94.35 95.03 95.57 96.10
4/25/2022 15:00 to 14:10 96.49 97.17 97.68 97.64 98.05 97.81
4/25/2022 14:00 to 13:10 98.16 98.81 99.12 98.90 99.16 98.92
4/25/2022 13:00 to 12:10 99.24 98.85 99.06 99.00 99.33 99.27
4/25/2022 12:00 to 11:10 99.04 99.12 99.10 99.14 98.32 98.40
4/25/2022 11:00 to 10:10 98.16 97.70 96.70 95.46 93.84 92.69
4/25/2022 10:00 to 9:10 92.14 91.62 91.91 92.16 92.09 92.16
4/25/2022 09:00 to 8:10 92.38 92.92 93.20 93.55 93.37 94.00
4/25/2022 08:00 to 7:10 94.37 94.66 94.07 93.02 92.71 92.30
4/25/2022 07:00 to 6:10 91.89 91.83 91.97 92.34 92.63 92.24
4/25/2022 06:00 to 5:10 92.30 92.24 91.62 91.11 90.18 90.12
4/25/2022 05:00 to 4:10 89.44 88.77 89.07 88.64 89.38 91.44
4/25/2022 04:00 to 3:10 92.83 94.27 94.60 93.94 93.51 93.04
4/25/2022 03:00 to 2:10 92.85 92.50 92.81 92.40 91.62 90.98
4/25/2022 02:00 to 1:10 90.47 90.12 90.18 90.22 89.94 89.75
4/25/2022 01:00 to 0:10 89.67 89.38 88.89 88.62 88.31 88.31
4/25/2022 00:00 to 23:10 87.82 87.37 86.94 87.57 87.74 88.44
4/24/2022 23:00 to 22:10 87.98 87.86 87.57 85.25 80.67 81.16
4/24/2022 22:00 to 21:10 81.70 82.11 82.50 82.70 83.85 84.59
4/24/2022 21:00 to 20:10 84.80 84.88 85.03 84.47 83.38 81.14
4/24/2022 20:00 to 19:10 78.37 77.85 78.04 77.92 78.22 78.45
4/24/2022 19:00 to 18:10 78.88 79.27 79.46 79.89 80.26 80.22
4/24/2022 18:00 to 17:10 80.22 80.44 79.70 79.85 80.22 80.44
4/24/2022 17:00 to 16:10 80.69 81.14 80.92 80.30 80.15 81.00
4/24/2022 16:00 to 15:10 81.31 81.47 81.55 81.90 81.96 82.00
4/24/2022 15:00 to 14:10 82.44 82.15 81.74 82.05 82.44 83.20
4/24/2022 14:00 to 13:10 83.53 83.94 84.31 84.66 85.07 85.62
4/24/2022 13:00 to 12:10 86.13 86.57 86.96 87.20 87.43 87.66
4/24/2022 12:00 to 11:10 87.90 88.11 88.23 88.29 88.31 88.40
4/24/2022 11:00 to 10:10 88.27 88.05 87.86 87.70 87.47 87.26
4/24/2022 10:00 to 9:10 87.39 87.49 87.51 87.24 86.53 85.56
4/24/2022 09:00 to 8:10 84.86 84.12 84.29 84.26 84.74 85.52
4/24/2022 08:00 to 7:10 85.42 85.21 85.11 85.35 85.60 85.97
4/24/2022 07:00 to 6:10 85.68 85.27 84.57 84.02 84.59 84.96
4/24/2022 06:00 to 5:10 85.35 85.54 85.76 86.46 87.20 87.74
4/24/2022 05:00 to 4:10 88.25 89.03 88.56 87.55 86.34 85.89
4/24/2022 04:00 to 3:10 86.09 86.05 85.83 85.76 85.83 86.26
4/24/2022 03:00 to 2:10 87.18 87.45 87.24 87.24 87.33 86.87
4/24/2022 02:00 to 1:10 85.29 85.79 86.65 87.68 88.42 88.68
4/24/2022 01:00 to 0:10 89.44 90.02 90.00 89.98 90.53 91.19